This is the latest recevied weather packets stored in our database for station/object KK7KHO. If no packets are shown the sender has not sent any weather packets the latest 10 day(s).
| Time | Temp. | Humidity | Pressure | Rain* | Wind** | Luminosity | Snow |
|---|---|---|---|---|---|---|---|
| 1777404855 | 10.56° C | 93% | 1022.9 hPa | 0 mm | - | 87 W/m² | - |
| 1777404553 | 10.56° C | 94% | 1022.8 hPa | 0 mm | - | 87 W/m² | - |
| 1777404249 | 10.56° C | 93% | 1022.8 hPa | 0 mm | - | 82 W/m² | - |
| 1777403944 | 10.56° C | 94% | 1022.8 hPa | 0 mm | - | 83 W/m² | - |
| 1777403644 | 10.56° C | 94% | 1022.9 hPa | 0 mm | - | 80 W/m² | - |
| 1777403338 | 10° C | 94% | 1022.8 hPa | 0 mm | - | 87 W/m² | - |
| 1777403033 | 10.56° C | 94% | 1022.8 hPa | 0 mm | - | 79 W/m² | - |
| 1777402729 | 10.56° C | 94% | 1022.8 hPa | 0 mm | - | 81 W/m² | - |
| 1777402424 | 10.56° C | 95% | 1022.7 hPa | 0 mm | - | 103 W/m² | - |
| 1777402123 | 10.56° C | 95% | 1022.6 hPa | 0 mm | - | 101 W/m² | - |
| 1777401818 | 10.56° C | 95% | 1022.5 hPa | 0 mm | - | 97 W/m² | - |
| 1777401517 | 10.56° C | 93% | 1022.7 hPa | 0 mm | - | 110 W/m² | - |
| 1777401213 | 10.56° C | 92% | 1022.5 hPa | 0 mm | - | 115 W/m² | - |
| 1777400909 | 10.56° C | 92% | 1022.3 hPa | 0 mm | - | 142 W/m² | - |
| 1777400605 | 10.56° C | 93% | 1022.4 hPa | 0 mm | - | 204 W/m² | - |
| 1777400303 | 10.56° C | 93% | 1022.2 hPa | 0 mm | - | 163 W/m² | - |
| 1777399998 | 10.56° C | 93% | 1022.2 hPa | 0 mm | - | 135 W/m² | - |
| 1777399696 | 10.56° C | 94% | 1022.3 hPa | 0 mm | - | 128 W/m² | - |
| 1777399393 | 10.56° C | 94% | 1022.2 hPa | 0 mm | - | 151 W/m² | - |
| 1777399090 | 10° C | 94% | 1022.3 hPa | 0 mm | - | 102 W/m² | - |
| 1777398788 | 10.56° C | 92% | 1022.4 hPa | 0 mm | - | 87 W/m² | - |
| 1777398485 | 10.56° C | 91% | 1022.1 hPa | 0 mm | - | 100 W/m² | - |
| 1777398181 | 10.56° C | 91% | 1022 hPa | 0 mm | - | 90 W/m² | - |
| 1777397877 | 10.56° C | 91% | 1022 hPa | 0 mm | - | 91 W/m² | - |
| 1777397572 | 10.56° C | 91% | 1022 hPa | 0 mm | - | 104 W/m² | - |
* Rain latest hour (hover to see other rain measurements)
** Current wind speed in m/s (hover to see current wind gust speed)